Reflectivity
-20 -20 -20 -20 -20 -20 -20 -20 -20 -20 -20 -20 -20 -20 -20 -20 -20 -20 -20 -20 -20 -20 -20 -20 -20 -20 -20 -20 -20 -20 -20 -20 -20 -20 -20 -20 -20 -20 -20 -20 -20 -20 -20 -20 -20 -20 -20 -20 -20
-20 -20 -20 -20 -20 -20 -20 -20 -20 -20 -20 -20 -20 -20 -20 -20 -20 -20 -20 -20 -20 -20 -20 -20 -20 -20 -20 -20 -20 -20 -20 -20 -20 -20 -20 -20 -20 -20 -20 -20 -20 -20 -20 -20 -20 -20 -20 -20 -20
-20 -20 -20 -20 -20 -20 -20 -20 -20 -20 -20 -20 -20 -20 -20 -20 -20 -20 -20 -20 -20 -20 -20 -20 -20 -20 -20 -20 -20 -20 -20 -20 -20 -20 -20 -20 -20 -20 -20 -20 -20 -20 -20 -20 -20 -20 -20 -20 -20
-20 -20 -20 -20 -20 -20 -20 -20 -20 -20 -20 -20 -20 -20 -20 -20 -20 -20 -20 -20 -20 -20 -20 -20 -20 -20 -20 -20 -20 -20 -20 -20 -20 -20 -20 -20 -20 -20 -20 -20 -20 -20 -20 -20 -20 -20 -20 -20 -20
-20 -20 -20 -20 -20 -20 -20 -20 -20 -20 -20 -20 -20 -20 -20 -20 -20 -20 -20 -20 -20 -20 -20 -20 -20 -20 -20 -20 -20 -20 -20 -20 -20 -20 -20 -20 -20 -20 -20 -20 -20 -20 -20 -20 -20 -20 -20 -20 -20
-20 -20 -20 -20 -20 -20 -20 -20 -20 -20 -20 -20 -20 -20 -20 -20 -20 -20 -20 -20 -20 -20 -20 -20 -20 -20 -20 -20 -20 -20 -20 -20 -20 -20 -20 -20 -20 -20 -20 -20 -20 -20 -20 -20 -20 -20 -20 -20 -20
-20 -20 -20 -20 -20 -20 -20 -20 -20 -20 -20 -20 -20 -20 -20 -20 -20 -20 -20 -20 -20 -20 -20 -20 -20 -20 -20 -20 -20 -20 -20 -20 -20 -20 -20 -20 -20 -20 -20 -20 -20 -20 -20 -20 -20 -20 -20 -20 -20
-20 -20 -20 -20 -20 -20 -20 -20 -20 -20 -20 -20 -20 -20 -20 -20 -20 -20 -20 -20 -20 -20 -20 -20 -20 -20 -20 -20 -20 -20 -20 -20 -20 -20 -20 -20 -20 -20 -20 -20 -20 -20 -20 -20 -20 -20 -20 -20 -20
-20 -20 -20 -20 -20 -20 -20 -20 -20 -20 -20 -20 -20 -20 -20 -20 -20 -20 -20 -20 -20 -20 -20 -20 -20 -20 -20 -20 -20 -20 -20 -20 -20 -20 -20 -20 -20 -20 -20 -20 -20 -20 -20 -20 -20 -20 -20 -20 -20
-20 -20 -20 -20 -20 -20 -20 -20 -20 -20 -20 -20 -20 -20 -20 -20 -20 -20 -20 -20 -20 -20 -20 -20 -20 -20 -20 -20 -20 -20 -20 -20 -20 -20 -20 -20 -20 -20 -20 -20 -20 -20 -20 -20 -20 -20 -20 -20 -20
-20 -20 -20 -20 -20 -20 -20 -20 -20 -20 -20 -20 -20 -20 -20 -20 -20 -20 -20 -20 -20 -20 -20 -20 -20 -20 -20 -20 -20 -20 -20 -20 -20 -20 -20 -20 -20 -20 -20 -20 -20 -20 -20 -20 -20 -20 -20 -20 -20
-20 -20 -20 -20 -20 -20 -20 -20 -20 -20 -20 -20 -20 -20 -20 -20 -20 -20 -20 -20 -20 -20 -20 -20 -20 -20 -20 -20 -20 -20 -20 -20 -20 -20 -20 -20 -20 -20 -20 -20 -20 -20 -20 -20 -20 -20 -20 -20 -13
-20 -20 -20 -20 -20 -20 -20 -20 -20 -20 -20 -20 -20 -20 -20 -20 -20 -20 -20 -20 -20 -20 -20 -20 -20 -20 -20 -20 -20 -20 -20 -20 -20 -20 -20 -20 -20 -20 -20 -20 -20 -20 -20 -20 -20 -12 -20 -20 -20
-20 -20 -20 -20 -20 -20 -20 -20 -20 -20 -20 -20 -20 -20 -20 -20 -20 -20 -20 -20 -20 -20 -20 -20 -20 -20 -20 -20 -20 -20 -20 -20 -20 -20 -20 -20 -20 -20 -20 -20 -20 -20 -20 -17 -20 -13 -20 -20 -20
-20 -20 -20 -20 -20 -20 -20 -20 -20 -20 -20 -20 -20 -20 -20 -20 -20 -20 -20 -20 -20 -20 -20 -20 -20 -20 -20 -20 -20 -20 -20 -20 -20 -20 -20 -20 -20 -20 -20 -20 -20 -20 -20 -20 -20 -20 -20 -20 -20
-20 -20 -20 -20 -20 -20 -20 -20 -20 -20 -20 -20 -20 -20 -20 -20 -20 -20 -20 -20 -20 -20 -20 -20 -20 -20 -20 -20 -20 -20 -20 -20 -20 -20 -20 -20 -20 -20 -20 -20 -20 -18 -20 -20 -20 -20 -4 -5 -12
-20 -20 -20 -20 -20 -20 -20 -20 -20 -20 -20 -20 -20 -20 -20 -20 -20 -20 -20 -20 -20 -20 -20 -20 -20 -20 -20 -20 -20 -20 -20 -20 -20 -20 -20 -20 -20 -20 -20 -20 -20 -19 -20 -20 -20 -19 -15 -20 -19
-20 -20 -20 -20 -20 -20 -20 -20 -20 -20 -20 -20 -20 -20 -20 -20 -20 -20 -20 -20 -20 -20 -20 -20 -20 -20 -20 -20 -20 -20 -20 -20 -20 -20 -20 -20 -20 -20 -20 -20 -20 -14 -20 -20 -20 -14 -7 -13 -20
-20 -20 -20 -20 -20 -20 -20 -20 -20 -20 -20 -20 -20 -20 -20 -20 -20 -20 -20 -20 -20 -20 -20 -20 -20 -20 -20 -20 -20 -20 -20 -20 -20 -20 -20 -20 -20 -20 -20 -20 -20 -20 -5 -12 -20 -0 5 -10 -20
-20 -20 -20 -20 -20 -20 -20 -20 -20 -20 -20 -20 -20 -20 -20 -20 -20 -20 -20 -20 -20 -20 -20 -20 -20 -20 -20 -20 -20 -20 -20 -20 -20 -20 -20 -20 -20 -20 -20 -20 -20 -1 -0 -17 -17 -1 8 -13 -19
-20 -20 -20 -20 -20 -20 -20 -20 -20 -20 -20 -20 -20 -20 -20 -20 -20 -20 -20 -20 -20 -20 -20 -20 -20 -20 -20 -20 -20 -20 -20 -20 -20 -20 -20 -20 -20 -20 -20 -20 -20 -2 1 -16 2 4 8 10 1
-20 -20 -20 -20 -20 -20 -20 -20 -20 -20 -20 -20 -20 -20 -20 -20 -20 -20 -20 -20 -20 -20 -20 -20 -20 -20 -20 -20 -20 -20 -20 -20 -20 -20 -20 -20 -20 -20 -20 -20 -20 -20 1 -20 -7 -19 9 11 8
-20 -20 -20 -20 -20 -20 -20 -20 -20 -20 -20 -20 -20 -20 -20 -20 -20 -20 -20 -20 -20 -20 -20 -20 -20 -20 -20 -20 -20 -20 -20 -20 -20 -20 -20 -20 -20 -20 -20 -20 -20 -20 -3 -0 2 3 11 14 11
-20 -20 -20 -20 -20 -20 -20 -20 -20 -17 -20 -20 -20 -20 -20 -20 -20 -20 -20 -20 -20 -20 -20 -20 -20 -20 -20 -20 -20 -20 -20 -20 -20 -20 -20 -20 -20 -20 -20 -20 -20 -20 -1 -3 3 8 12 8 6
-20 -20 -3 0 0 14 -20 -20 12 -20 -20 -20 -20 -20 -20 -20 -20 -20 -20 -20 -20 -20 -20 -20 -20 -20 -20 -20 -20 -20 -20 -20 -20 -20 -20 -20 -20 -20 -20 -20 -20 -20 -20 -9 4 9 9 9 10
-20 -20 -4 11 -20 -20 -20 -20 -4 -20 4 -11 -20 -20 -20 -20 -20 -20 -20 -20 -20 -20 -20 -20 -20 -20 -20 -20 -20 -20 -20 -20 -20 -20 -20 -20 -20 -20 -20 -20 -20 -20 -20 -20 1 4 9 8 13
-20 -20 -20 -20 -19 -20 -20 -18 -20 6 7 -1 -20 -20 -20 -20 -20 -20 -20 -20 -20 -20 -20 -20 -20 -20 -20 -20 -20 -20 -20 -20 -20 -20 -20 -20 -20 -20 -20 -20 -20 -20 -20 -20 1 2 6 11 12
-18 -20 17 28 13 -8 11 -6 -0 12 -18 -20 -20 -20 -20 -20 -20 -20 -20 -20 -20 -20 -20 -20 -20 -20 -20 -20 -20 -20 -20 -20 -20 -20 -20 -20 -20 -20 -20 -20 -20 -20 -4 -15 0 5 9 12 12
-20 -20 -20 -11 6 12 -3 -20 11 9 -20 -20 -20 -20 -20 -20 -20 -20 -20 -20 -20 -20 -20 -20 -20 -20 -20 -20 -20 -20 -20 -20 -20 -20 -20 -20 -20 -20 -20 -20 -20 -17 -6 -15 2 11 13 14 21
-20 -20 -20 -1 1 -8 -20 7 -20 -19 -20 -20 -20 -20 -20 -20 -20 -20 -20 -20 -20 -20 -20 -20 -20 -20 -20 -20 -20 -20 -20 -20 -20 -20 -20 -20 -20 -20 -20 -20 -20 -20 -4 1 9 7 14 17 18
Wind_Speed
15 10 2 1 3 1 1 1 1 4 3 2 3 2 6 6 3 3 6 6 8 7 2 1 4 7 7 8 9 10 11 12 13 14 15 15 16 16 16 15 16 16 16 16 14 14 13 15 16
11 5 1 2 0 1 1 2 4 4 8 11 8 5 4 5 4 9 10 7 7 5 2 1 5 6 7 7 9 10 10 10 11 12 14 14 15 16 17 17 17 17 16 15 15 14 14 14 16
5 2 1 3 2 2 2 4 7 9 9 3 5 6 3 4 6 11 7 11 6 4 3 6 5 7 8 7 8 9 9 8 9 11 14 15 15 17 18 18 17 17 17 18 18 17 17 16 16
4 2 4 0 2 1 2 4 7 13 3 5 7 9 5 2 11 7 15 10 7 6 4 7 6 7 8 7 8 9 10 9 9 11 13 14 14 17 17 17 17 17 18 18 17 17 18 18 17
2 1 1 1 2 1 0 5 11 8 6 6 2 6 5 2 9 18 14 10 9 6 5 5 7 6 7 7 7 9 10 9 8 10 11 13 14 16 17 17 17 17 17 18 17 17 17 17 17
2 1 1 4 1 1 2 10 9 5 6 8 7 7 4 6 16 13 12 10 8 7 6 6 8 8 7 9 7 8 10 9 8 9 10 12 14 14 17 17 17 17 18 18 17 18 17 16 17
2 2 1 2 2 2 4 10 6 6 7 5 11 6 5 12 10 12 10 9 8 7 6 6 6 7 9 8 7 9 9 7 8 9 10 11 13 13 16 17 17 18 19 18 18 17 17 17 17
4 3 2 2 2 1 8 5 4 3 4 9 5 7 9 16 13 11 10 8 7 6 5 5 4 5 5 6 8 9 7 9 10 10 10 11 10 13 15 17 18 19 18 17 18 18 18 18 18
2 1 2 2 5 3 8 5 2 3 9 2 2 5 7 20 16 12 10 8 6 5 4 3 4 4 4 5 6 7 8 9 9 8 10 6 7 10 13 16 18 18 18 17 18 18 18 18 16
2 1 1 0 1 3 9 4 8 6 6 3 4 7 19 19 17 15 13 11 9 7 5 3 4 4 3 4 4 5 5 5 5 6 6 6 7 9 11 13 16 16 17 17 17 17 18 13 9
2 0 2 2 2 7 9 6 3 11 6 7 9 17 20 19 15 14 12 12 11 8 5 4 4 3 3 4 3 3 2 3 4 6 6 6 7 7 7 7 7 8 12 8 11 10 8 12 10
1 3 2 2 4 6 9 10 6 3 1 3 15 21 20 18 16 14 13 11 10 9 6 4 4 4 4 3 3 3 3 3 3 5 7 6 6 8 9 7 9 8 7 10 9 7 10 11 11
3 3 4 3 5 7 8 5 5 1 3 14 17 17 18 17 16 12 10 9 9 9 7 5 5 5 3 4 3 3 3 3 4 5 7 7 8 8 8 8 8 8 8 8 9 8 9 11 11
3 6 6 3 4 4 5 3 2 3 10 15 17 16 16 16 16 12 11 11 11 9 8 6 6 4 4 4 4 3 3 4 4 5 7 9 8 8 8 8 8 8 8 8 7 8 9 9 11
4 4 2 3 3 3 5 3 5 10 14 16 15 13 13 14 13 15 14 12 12 9 8 7 6 5 4 4 3 3 3 3 4 5 8 9 9 9 9 7 8 8 9 9 8 9 9 10 10
2 2 2 2 4 2 3 4 5 15 17 16 14 11 11 13 15 13 8 10 10 10 8 7 5 5 5 4 3 3 3 3 4 6 7 9 9 10 8 8 8 9 7 7 8 8 10 9 8
4 4 2 4 5 4 4 2 3 12 15 15 14 13 12 11 9 7 7 9 10 10 9 7 6 6 5 4 3 3 3 3 5 6 7 10 10 10 9 8 8 9 7 7 8 9 10 9 9
3 3 2 5 4 5 5 13 3 13 16 16 15 14 13 12 13 9 9 9 10 8 7 7 5 5 3 1 1 2 2 2 5 6 8 11 9 11 10 8 10 8 7 8 8 10 10 10 9
3 2 3 4 3 8 11 14 11 15 14 15 16 15 15 13 7 8 10 10 10 8 7 6 6 5 3 3 4 2 3 4 5 6 9 10 11 11 10 8 9 9 9 9 9 9 11 9 9
4 7 9 3 2 9 3 14 10 16 20 22 21 18 16 11 10 10 12 11 10 9 7 7 6 5 4 3 3 2 3 3 4 5 8 10 11 12 11 11 9 10 9 10 10 11 9 10 9
4 7 7 11 3 5 4 7 5 7 12 14 15 16 14 15 15 14 13 12 10 9 7 7 6 6 5 5 2 3 2 3 4 6 7 9 12 12 11 11 10 10 9 8 10 10 12 10 10
4 7 14 7 6 5 3 6 5 2 8 14 15 15 15 15 14 13 15 13 11 9 8 7 6 6 5 5 4 5 5 6 6 6 7 9 11 11 12 12 11 11 9 9 10 10 10 9 10
4 5 5 2 5 3 3 3 3 1 5 10 17 18 16 17 17 16 15 13 11 10 8 7 7 5 5 5 5 5 7 5 6 7 12 11 11 11 12 12 12 11 9 11 12 12 12 9 9
2 3 5 3 1 1 1 3 3 3 3 4 1 16 17 16 13 15 14 13 12 9 8 7 6 5 5 4 5 6 7 9 9 11 10 10 10 9 12 13 12 11 12 12 11 13 12 10 9
3 5 2 3 1 3 1 3 5 8 6 7 4 14 16 15 17 17 17 14 12 10 8 6 5 5 4 5 5 6 7 10 11 11 10 12 10 10 11 13 13 11 13 13 13 12 12 10 10
3 3 5 4 4 3 1 4 2 3 7 11 3 10 14 16 15 17 17 14 13 11 8 7 6 4 4 5 6 5 7 7 7 9 9 9 9 10 13 12 13 14 15 14 13 10 10 11 10
3 3 2 1 1 3 3 2 2 5 9 10 8 8 12 15 16 18 16 13 12 10 8 7 5 4 5 5 5 6 7 8 7 10 10 9 10 10 12 13 13 15 16 16 15 10 12 12 11
2 7 2 2 3 2 4 2 1 8 9 3 6 8 11 13 16 16 14 13 10 9 8 6 4 5 4 5 5 5 7 7 8 9 12 13 12 12 13 14 14 16 16 16 16 13 12 14 11
3 3 4 4 1 1 3 1 4 6 6 3 6 9 11 13 15 15 13 11 11 9 8 6 5 5 4 5 5 6 6 8 8 9 12 12 12 13 14 14 15 16 17 16 15 15 15 16 13
1 3 5 3 3 2 1 6 2 4 7 3 8 10 11 13 14 14 14 12 11 9 8 6 5 4 4 4 5 6 7 8 9 10 13 13 13 14 14 14 15 16 17 17 16 17 17 16 15
Wind_Direction
130 136 141 262 233 337 53 89 56 132 131 28 59 72 93 41 19 50 136 129 128 132 133 137 90 67 72 66 63 53 48 44 42 42 36 33 30 25 20 13 11 8 2 0 1 2 7 5 0
142 137 134 100 49 304 43 182 193 127 123 120 96 102 66 85 83 118 140 165 135 130 214 211 112 69 70 62 65 52 47 43 44 38 34 32 28 21 18 12 6 4 360 357 355 359 358 355 350
139 30 279 79 118 206 250 183 131 122 132 124 108 48 83 89 121 141 143 151 147 135 104 93 77 62 69 54 63 55 42 42 40 37 32 24 24 19 16 10 4 2 360 357 349 346 344 341 340
157 137 97 279 253 182 267 142 139 141 110 73 116 82 91 344 147 151 144 148 145 108 71 81 80 64 55 46 52 52 35 39 37 41 28 22 20 14 12 6 360 358 353 345 339 341 336 331 331
67 99 112 137 241 264 235 141 151 133 121 115 150 122 102 107 135 140 149 151 135 108 72 87 75 64 44 52 49 48 26 34 33 39 27 22 14 11 7 3 356 354 350 343 342 336 332 332 328
113 120 250 270 237 123 89 155 143 118 132 139 112 112 109 131 143 151 147 143 132 109 79 55 50 48 49 59 48 44 31 24 42 38 24 18 11 12 4 360 351 350 346 340 340 333 329 328 324
179 145 262 250 259 215 165 161 165 133 139 166 140 108 115 163 154 150 144 141 128 104 81 56 45 43 41 47 50 39 29 38 43 34 29 23 14 9 0 355 349 348 345 340 340 334 330 326 324
106 98 155 215 216 220 144 123 104 128 129 120 171 150 165 177 158 147 145 138 126 108 91 69 64 49 43 39 52 35 38 62 48 34 35 29 14 3 358 352 352 349 347 345 341 336 331 327 325
141 165 259 227 183 135 156 146 64 79 132 148 103 139 150 148 147 144 150 147 148 144 127 89 71 59 44 58 48 42 59 61 49 44 33 16 7 351 354 352 351 349 345 345 340 336 330 327 318
70 208 260 54 174 156 158 157 137 150 150 140 120 86 132 145 157 164 172 172 177 170 156 106 79 60 56 68 52 63 82 60 54 46 28 10 359 351 350 349 348 346 343 340 337 332 328 321 319
85 138 148 34 199 159 149 129 127 145 196 195 177 146 149 158 167 176 181 184 179 166 156 121 88 63 77 68 57 62 94 52 65 43 20 4 349 352 354 345 344 340 341 337 331 326 325 325 319
157 84 16 89 127 135 153 131 131 178 8 186 149 149 153 165 175 183 189 186 174 173 153 123 94 97 75 76 63 70 60 57 51 32 11 357 351 351 353 347 341 336 335 329 328 322 329 317 311
75 89 51 87 111 103 127 127 134 180 79 126 135 152 163 171 182 193 197 184 174 173 158 120 103 101 85 81 68 63 61 65 49 20 13 1 355 354 343 340 334 331 329 326 329 323 313 312 311
84 103 120 103 117 119 134 130 201 116 139 135 150 163 169 181 188 192 197 187 180 170 155 125 118 111 94 81 64 68 84 80 40 19 10 5 358 352 341 334 331 327 330 335 310 305 305 304 297
136 106 140 153 159 132 143 168 218 151 156 151 165 172 179 195 194 206 202 186 175 168 144 136 131 112 100 87 67 66 73 61 26 7 8 6 359 346 338 332 331 330 338 313 308 306 301 301 305
72 69 266 115 176 126 240 255 172 163 161 166 173 180 188 198 208 217 202 180 170 153 150 147 133 122 100 78 61 74 83 52 16 6 2 360 353 349 336 334 333 341 320 314 310 309 311 310 302
26 275 247 300 198 156 228 256 131 175 179 175 180 185 189 199 212 196 176 173 162 153 148 141 133 116 102 87 79 82 102 33 11 12 5 358 355 349 339 336 335 339 317 311 310 312 306 304 297
269 267 248 269 183 193 206 245 164 191 194 189 187 188 194 201 205 175 168 158 149 143 141 135 124 104 89 60 116 86 54 8 12 17 12 6 357 349 344 338 342 324 312 314 314 308 306 298 297
112 186 265 243 213 207 230 254 223 192 207 202 198 196 199 203 187 166 159 146 141 139 139 131 115 69 22 357 343 320 351 356 11 11 12 7 2 355 345 341 336 324 324 321 313 308 303 306 308
262 280 276 261 174 217 232 264 241 195 211 205 199 200 199 180 175 167 156 151 154 146 134 118 102 80 46 18 6 329 340 334 357 360 6 2 356 358 348 339 329 326 324 321 322 316 313 309 320
300 272 259 262 149 212 280 265 250 217 229 216 214 209 198 188 182 173 163 157 148 146 137 126 105 81 50 19 2 356 317 319 342 357 354 356 358 350 341 333 330 328 326 319 313 312 312 308 312
308 285 265 222 192 267 243 293 264 213 230 221 210 202 198 193 192 172 163 157 154 141 129 124 105 77 55 26 21 12 1 357 349 339 342 349 346 339 340 333 333 328 328 319 314 315 311 309 307
327 346 305 257 167 160 183 242 266 338 274 243 214 202 195 196 189 171 164 152 144 138 135 119 104 80 56 37 11 2 8 344 338 346 344 339 339 341 340 335 332 332 328 327 321 320 317 306 305
142 49 34 44 228 214 348 238 292 321 343 321 227 199 192 187 170 154 145 137 134 132 131 124 111 79 52 27 24 16 3 358 1 358 343 343 340 340 343 339 335 331 331 335 320 311 313 317 305
77 45 328 279 215 240 185 218 282 319 353 312 284 193 186 163 153 150 144 145 142 144 139 126 113 76 45 31 22 13 4 12 9 356 347 344 343 343 341 339 338 337 338 332 316 322 317 313 305
64 114 141 293 328 330 118 241 96 35 29 2 265 175 153 148 150 150 147 146 146 146 139 130 110 92 53 28 22 11 16 15 8 356 351 348 343 336 336 339 338 341 345 335 337 325 322 318 309
110 71 35 185 158 262 289 309 195 18 35 39 54 127 140 142 146 145 143 143 146 144 136 128 123 97 57 24 23 20 18 13 3 358 354 349 344 340 343 344 344 346 348 344 338 330 325 322 314
200 144 47 54 284 259 291 239 283 330 341 24 93 119 130 137 139 142 141 144 144 128 127 125 122 80 58 40 22 19 15 8 2 356 354 352 349 348 349 351 348 351 349 344 341 337 330 329 324
146 122 75 108 302 183 296 141 202 290 316 300 122 129 142 143 145 142 141 144 126 129 133 134 111 92 63 37 20 17 11 7 2 357 356 355 350 351 354 353 350 351 349 345 345 345 340 337 333
309 186 150 170 181 201 284 273 154 284 303 153 132 137 137 143 145 143 146 135 134 138 142 132 109 93 58 37 27 16 12 5 4 1 2 359 356 356 354 353 353 354 351 350 351 348 346 344 343